Flag for Germany Weather past 2 weeks in Heide, Schleswig-Holstein, Germany

Now
48 °F

Scattered clouds.


Feels Like: 45 °F
Forecast: 43 / 53 °F
Wind: 8 mph from Southwest

Location: Hohn

Current Time: Apr 28, 2015 at 12:50:18 PM

Latest Report: Apr 28, 2015 at 12:20 PM


Visibility: N/A

Pressure: 29.92 "Hg

Humidity: 54%

Dew point: 32 °F

Location of HeideLocation

Historic Weather in Heide — Graph

°F

Heide temperature yesterday

Maximum temperature yesterday: 52 °F (at 1:20 PM)
Minimum temperature yesterday: 37 °F (at 11:20 PM)
Average temperature yesterday: 45 °F

Past Weeks' High & Low Weather Summary

 TemperatureHumidityPressure
High64 °F (Apr 20, 3:20 PM)100% (Apr 18, 6:20 AM)30.36 "Hg (Apr 18, 6:20 AM)
Low27 °F (Apr 28, 5:20 AM)27% (Apr 20, 7:20 PM)29.65 "Hg (Apr 25, 5:20 PM)
Average47 °F76%30.05 "Hg
* Reported Apr 13 11:20 AM — Apr 28 11:20 AM, Heide, Weather by CustomWeather, © 2015

Note: Actual official high and low records may vary slightly from our data, if they occured in-between our weather recording intervals... More about our weather records

Advertising

Heide weather history for previous 24 hours

 ConditionsComfort  
Time TempWeatherWind HumidityBarometerVisibility
11:20 AM
Tue, Apr 28
48 °FScattered clouds.8 mph54%29.92 "HgN/A
10:20 AM45 °FScattered clouds.5 mph57%29.89 "HgN/A
9:20 AM45 °FScattered clouds.1 mph66%29.89 "HgN/A
8:20 AM41 °FScattered clouds.1 mph76%29.89 "HgN/A
7:20 AM32 °FPassing clouds.2 mph93%29.86 "HgN/A
6:20 AM28 °FFog.2 mph93%29.86 "HgN/A
5:20 AM27 °FFog.3 mph93%29.83 "HgN/A
4:20 AM28 °FFog.No wind93%29.83 "HgN/A
3:20 AM28 °FFog.1 mph93%29.83 "HgN/A
2:20 AM30 °FFog.1 mph86%29.83 "HgN/A
1:20 AM32 °FFog.1 mph87%29.83 "HgN/A
12:20 AM34 °FPassing clouds.3 mph81%29.83 "HgN/A
11:20 PM
Mon, Apr 27
37 °FPassing clouds.5 mph75%29.83 "HgN/A
10:20 PM39 °FPassing clouds.5 mph70%29.83 "HgN/A
9:20 PM41 °FPartly sunny.8 mph61%29.83 "HgN/A
8:20 PM45 °FPartly sunny.9 mph53%29.80 "HgN/A
7:20 PM46 °FPartly sunny.13 mph53%29.80 "HgN/A
6:20 PM48 °FPartly sunny.15 mph46%29.80 "HgN/A
5:20 PM50 °FScattered clouds.16 mph50%29.77 "HgN/A
4:20 PM50 °FScattered clouds.16 mph54%29.77 "HgN/A
3:20 PM52 °FScattered clouds.15 mph44%29.77 "HgN/A
2:20 PM52 °FScattered clouds.14 mph50%29.77 "HgN/A
1:20 PM52 °FScattered clouds.10 mph47%29.74 "HgN/A
12:20 PM50 °FScattered clouds.9 mph50%29.74 "HgN/A
Weather by CustomWeather, © 2015

See weather overviewHow to use our weather pages